Tracking 17828 objects as of 31-July-2016
HD Live streaming from Space Station
objects crossing your sky now

COSMOS 2418 (GLONASS)

Track COSMOS 2418 (GLONASS) now!
COSMOS 2418 (GLONASS) is classified as:


NORAD ID: 28916
Int'l Code: 2005-050B
Perigee: 19,101.8 km
Apogee: 19,172.5 km
Inclination: 65.4 °
Period: 675.7 minutes
Semi major axis: 25508 km
RCS: 3.9905 m2 (large)
Launch date: December 25, 2005
Source: Commonwealth of Independent States (former USSR) (CIS)
Launch site: TYURATAM MISSILE AND SPACE COMPLEX (TTMTR)
SV:
Your satellite tracking list
Your tracking list is empty





NASA's NSSDC Master Catalog

Two Line Element Set (TLE):
1 28916U 05050B   16211.41443720 -.00000021  00000-0  00000+0 0  9995
2 28916  65.3577  76.8250 0013857 334.8106 198.5919  2.13104595 82459
Source of the keplerian elements: AFSPC

N2YO: 903